Regional Weather Roundup
Issued by NWS

Home | Current Version | Previous Version | Graphics & Text | Print | Product List | Glossary On
Versions: 1 2 3 4 5 6 7 8 9 10 11 12 13 14 15 16 17 18 19 20 21 22 23 24 25 26 27 28 29 30 31 32 33 34 35 36 37 38 39 40 41 42 43 44 45 46 47 48 49 50
000
ASUS43 KDMX 270307
RWRIA

WEATHER ROUNDUP FOR IOWA
NATIONAL WEATHER SERVICE DES MOINES IA
1000 PM CDT WED AUG 26 2015

NOTE: "FAIR" INDICATES FEW OR NO CLOUDS BELOW 12,000 FEET WITH NO
SIGNIFICANT WEATHER AND/OR OBSTRUCTIONS TO VISIBILITY.

* - THESE STATIONS ARE NOT NWS STATIONS...THUS NOT UNDER NWS
QUALITY CONTROL.  THEY ALSO DO NOT REPORT WEATHER SUCH
AS PRECIPITATION OR FOG.

IAZ001>003-012>014-020>022-031>034-043>046-270400-
   NORTHWEST IOWA

CITY           SKY/WX    TMP DP  RH WIND       PRES   REMARKS
CARROLL *      CLOUDY    57  57 100 SE6       30.13S
CHEROKEE *     CLEAR     63  59  88 SE3       30.11R
DENISON *      MOCLDY    63  61  94 E6        30.10R
LE MARS *      CLEAR     66  63  88 SE5       30.09R
ORANGE CITY *  CLEAR     64  61  88 SE5       30.10R
SHELDON *      CLEAR     61  57  88 SE8       30.09R
SIOUX CITY     CLEAR     66  61  84 SE10      30.07R
SPENCER        CLEAR     62  53  72 SE9       30.11S
STORM LAKE *   CLEAR     63  57  82 SE8       30.13R
$$

IAZ055>058-069>071-079>083-090>094-270400-
   SOUTHWEST IOWA

CITY           SKY/WX    TMP DP  RH WIND       PRES   REMARKS
ATLANTIC *     CLOUDY    61  61 100 CALM      30.13R
AUDUBON *      CLEAR     59  55  88 CALM      30.14S
CLARINDA *     CLEAR     64  61  88 CALM      30.14R
COUNCIL BLFS *   N/A     66  63  88 SE6       30.11R
CRESTON *      CLEAR     61  55  82 SE5       30.16R
HARLAN  *      CLEAR     61  61 100 CALM      30.16R
LAMONI         CLEAR     68  56  65 SE3       30.15R
RED OAK *      CLEAR     64  61  88 CALM      30.12S
SHENANDOAH *   CLEAR     66  63  88 E6        30.12R
$$

IAZ047>049-059>061-072>074-084-270400-
   CENTRAL IOWA

CITY           SKY/WX    TMP DP  RH WIND       PRES   REMARKS
AMES           CLEAR     58  55  90 CALM      30.14R
ANKENY *       CLEAR     57  55  94 CALM      30.14S
CHARITON *     CLOUDY    64  59  82 SE5       30.15R
DES MOINES     PTCLDY    69  51  52 SE7       30.14R
GRINNELL*      CLEAR     61  55  82 CALM      30.16S
KNOXVILLE *    CLEAR     66  55  68 CALM      30.14R
MARSHALLTOWN   CLEAR     61  57  87 SE5       30.14R
PELLA *        CLEAR     59  59 100 CALM      30.16R
PERRY *          N/A     59  57  94 SE3       30.14R
$$

IAZ004>006-015-016-023>025-035-036-270400-
   NORTH CENTRAL IOWA

CITY           SKY/WX    TMP DP  RH WIND       PRES   REMARKS
ALGONA *       CLEAR     61  55  82 SE8       30.14R
CLARION *      CLEAR     57  54  88 SE7       30.15R
ESTHERVILLE    CLEAR     57  55  93 SE7       30.12R
FORT DODGE *   PTCLDY    57  54  88 CALM      30.14S
MASON CITY     CLEAR     54  51  90 S5        30.16R
FOREST CITY *  CLEAR     54  54 100 CALM      30.14S
IOWA FALLS *     N/A     59  55  88 CALM      30.16R
$$

IAZ007>011-017>019-026>030-037>042-050>054-066-270400-
   NORTHEAST IOWA

CITY           SKY/WX    TMP DP  RH WIND       PRES   REMARKS
CEDAR RAPIDS   CLEAR     61  56  83 NW3       30.15R
CHARLES CITY * CLEAR     57  55  94 CALM      30.16R
CLINTON *      CLEAR     61  54  77 CALM      30.18R
DECORAH *      CLOUDY    59  52  77 SE6       30.14F
DUBUQUE        CLEAR     61  54  77 E5        30.17R
MONTICELLO *   CLEAR     57  55  94 CALM      30.16R
OELWEIN *        N/A     57  55  94 SE5       30.16S
WATERLOO       CLEAR     59  54  83 CALM      30.14R
$$

IAZ064-065-067-068-078-270400-
   EAST CENTRAL IOWA

CITY           SKY/WX    TMP DP  RH WIND       PRES   REMARKS
DAVENPORT      PTCLDY    59  56  89 CALM      30.16R
IOWA CITY      CLEAR     61  56  83 W3        30.16R
MT. PLEASANT * CLEAR     63  55  77 CALM      30.16R
MUSCATINE *    CLEAR     61  57  88 CALM      30.16R
QUAD CITIES    CLEAR     60  56  86 CALM      30.15R
$$

IAZ062-063-075>077-085>089-095>099-270400-
   SOUTHEAST IOWA

CITY           SKY/WX    TMP DP  RH WIND       PRES   REMARKS
BURLINGTON     CLEAR     61  58  90 CALM      30.16R
FAIRFIELD *    CLEAR     59  54  82 CALM      30.16R
FORT MADISON * CLEAR     63  57  82 CALM      30.17R
KEOKUK *       CLEAR     63  59  88 CALM      30.15R
OSKALOOSA *      N/A     55  54  94 E3        30.16R
CENTERVILLE *  CLEAR     59  57  94 E3        30.17R
OTTUMWA        CLEAR     60  56  86 E5        30.14R
WASHINGTON *     N/A    N/A N/A N/A MISG        N/A
$$

ABBREVIATIONS USED IN REMARKS
   TC - TEMPERATURES IN CELSIUS
  WCI - WIND CHILL INDEX
   HX - HEAT INDEX
  VSB - VISIBILITY
$$



USA.gov is the U.S. government's official web portal to all federal, state and local government web resources and services.